User: anonymous   Login
Location: Unspecified
(0.0000°N, 0.0000°E)
Time: 04:15:46
(UTC+00:00)
Language:

HIMAWARI 8 - Orbit

View from above orbital plane
View from above orbital plane
View from above satellite
View from above satellite

Ground track
Ground track

The orbit data is extracted from the following two-line orbital elements,

1 40267U 14060A   18293.52888997 -.00000280  00000-0  00000+0 0  9999
2 40267   0.0459  70.8930 0001195 156.8154 132.3128  1.00271859 14820
Epoch (UTC): 20 October 2018 12:41:36
Eccentricity: 0.0001195
inclination: 0.0459°
perigee height: 35781 km
apogee height: 35791 km
right ascension of ascending node: 70.8930°
argument of perigee: 156.8154°
revolutions per day: 1.00271859
mean anomaly at epoch: 132.3128°
orbit number at epoch: 1482

The dashed part of the orbit path shows where the satellite is in the earth's shadow,  

DLR